SCP
1 1 0 0 1 0 0 0 0 0 0 0 0 0 0 0 0 0 0 1 0 0 1 1 0 0 0 0 0 0 1 1 1 1 1 1 1 0 0 1 1 1 1
2 1 1 1 1 1 1 0 0 1 1 1 1 1 1 1 1 1 1 1 0 0 0 1 1 1 0 0 0 1 1 1 1 1 1 1 1 1 1 1 1 1 1
2 2 2 1 1 1 1 1 1 1 1 1 0 0 1 1 0 1 1 1 1 1 0 0 1 1 1 0 1 1 1 1 1 1 1 1 1 1 1 1 1 1 1
2 2 2 2 3 3 3 3 2 1 1 1 -0 1 1 1 1 1 2 2 1 1 1 0 0 1 1 1 1 1 1 1 1 1 1 1 1 1 1 2 1 1 0
1 1 1 1 3 2 2 1 1 1 1 1 1 0 1 1 0 0 0 1 1 2 3 2 1 0 1 1 1 1 1 1 1 1 1 1 1 1 1 1 1 1 0
0 0 0 0 1 1 0 -0 1 2 1 1 0 0 0 0 0 0 0 0 0 0 0 1 2 2 0 0 0 1 1 1 1 1 1 1 1 1 1 1 1 1 1
1 0 0 0 -0 1 1 2 2 1 0 0 0 0 0 0 0 0 0 0 0 0 0 0 1 1 1 1 1 1 1 1 1 1 2 1 1 1 1 1 1 1 1
2 1 2 2 3 1 2 1 1 1 0 0 0 0 0 0 0 0 0 0 0 0 0 0 0 0 1 2 1 0 1 1 1 1 2 2 1 1 1 1 1 1 1
3 3 2 1 1 1 0 1 1 0 0 0 0 0 0 0 0 0 0 0 0 0 0 0 0 0 0 0 1 1 1 1 1 1 2 2 2 1 1 1 1 1 1
1 1 1 0 0 1 1 0 0 0 0 0 0 0 0 0 0 0 0 0 0 0 0 0 0 0 0 0 1 1 1 1 1 1 1 2 2 1 1 1 1 0 1
1 0 0 1 1 1 1 1 0 1 1 1 0 0 0 0 0 0 0 0 0 0 0 0 0 0 0 0 1 1 0 1 0 0 1 0 0 1 1 1 1 1 1
1 1 0 0 0 1 0 0 1 1 1 1 1 0 0 0 0 0 0 0 0 0 0 0 0 0 0 0 0 0 0 0 0 0 1 1 0 1 0 -0 0 0 0
0 1 0 0 0 0 0 0 0 0 0 0 0 0 0 0 0 0 0 0 0 0 0 0 0 0 0 0 0 0 0 0 0 0 0 0 0 0 0 -0 0 0 0
0 0 0 0 0 0 0 0 0 0 0 0 0 0 0 0 0 0 0 0 0 0 0 0 0 0 0 0 0 0 0 0 0 0 0 0 0 0 0 0 -0 0 1
0 0 0 0 0 0 0 0 0 0 0 0 0 0 0 0 0 0 0 0 0 0 0 0 0 0 0 0 0 0 0 0 0 0 0 0 0 0 -0 0 0 0 0
0 0 0 0 0 0 0 0 0 0 0 0 0 0 0 0 0 0 0 0 0 0 0 0 0 0 0 0 0 0 0 -0 -0 0 0 0 0 0 0 0 0 0 0
0 0 0 0 0 0 0 0 0 0 0 0 0 0 0 0 0 0 0 0 0 0 0 0 0 0 0 0 0 0 0 0 -0 0 0 0 0 0 0 0 0 0 0
0 0 0 0 0 0 0 0 0 0 0 0 0 0 0 0 0 0 0 0 0 0 0 0 0 0 0 0 0 0 0 0 0 0 0 0 0 0 0 0 0 0 0
0 0 0 0 0 0 0 0 0 0 0 0 0 0 0 0 0 0 0 0 0 0 0 0 0 0 0 0 0 0 0 0 0 0 0 0 0 0 0 0 0 0 0
0 0 0 0 0 0 0 0 0 0 0 0 0 0 0 0 0 0 0 0 0 0 0 0 0 0 0 0 0 0 0 0 0 0 0 0 0 0 0 0 0 0 0
0 0 0 0 0 0 0 0 0 0 0 0 0 0 0 0 0 0 0 0 0 0 0 0 0 0 0 0 0 0 0 0 0 0 0 0 0 0 0 0 0 0 0
0 0 0 0 0 0 0 0 0 0 0 0 0 0 0 0 0 0 0 0 0 0 0 0 0 0 0 0 0 0 0 0 0 0 0 0 0 0 0 0 0 0 0
0 0 0 0 0 0 0 0 0 0 0 0 0 0 0 0 0 0 0 0 0 0 0 0 0 0 0 0 0 0 0 0 0 0 0 0 0 0 0 0 0 0 0
0 0 0 0 0 0 0 0 0 0 0 0 0 0 0 0 0 0 0 0 0 0 0 0 0 0 0 0 0 0 0 0 0 0 0 0 0 0 0 0 0 0 0
0 0 0 0 0 0 0 0 0 0 0 0 0 0 0 0 0 0 0 0 0 0 0 0 0 0 0 0 0 0 0 0 0 0 0 0 0 0 0 0 0 0 0
0 0 0 0 0 0 0 0 0 0 0 0 0 0 0 0 0 0 0 0 0 0 0 0 0 0 0 0 0 0 0 0 0 0 0 0 0 0 0 0 0 0 0
Wind_Speed_500mb
37 36 35 27 29 14 14 14 17 24 26 30 30 29 30 32 38 44 48 52 53 56 61 63 58 56 53 51 52 51 51 52 50 47 43 44 41 37 34 34 36 43 41
39 29 32 39 38 31 27 27 23 24 30 30 32 33 36 43 44 41 40 46 50 60 60 63 71 68 63 61 59 59 58 57 53 52 53 50 48 44 38 36 36 41 41
34 33 26 22 21 23 29 35 38 37 43 40 36 36 39 38 42 47 43 39 51 68 58 60 69 69 68 66 64 67 67 61 58 56 58 57 55 52 44 37 36 41 41
36 41 39 35 33 34 34 34 34 31 32 31 18 40 33 34 31 49 52 65 61 59 62 66 66 66 64 67 66 64 67 71 66 65 64 62 59 59 51 43 36 44 43
41 34 29 35 45 40 42 37 25 26 34 32 29 38 40 40 42 41 40 47 50 49 57 64 73 70 69 69 70 70 72 72 74 74 71 68 65 65 59 50 38 41 46
23 51 35 28 21 30 17 5 7 17 23 28 39 44 47 50 57 60 65 66 65 66 62 68 71 72 70 66 62 61 64 64 65 75 78 73 68 65 65 56 53 35 56
4 10 39 27 11 3 8 12 17 18 19 30 40 47 49 51 54 60 59 64 67 65 69 66 67 67 72 69 63 59 58 57 61 63 70 75 70 67 65 60 57 48 48
20 14 13 7 6 15 20 21 27 30 29 25 27 39 53 60 59 55 50 51 55 55 59 61 54 45 53 40 49 57 59 62 64 61 66 66 73 69 65 60 56 51 46
11 23 17 22 23 26 25 19 17 22 30 36 34 34 46 47 59 60 66 70 71 70 73 75 79 78 72 64 61 62 60 61 63 63 66 68 59 69 67 62 58 55 46
22 16 20 19 17 14 12 13 19 25 32 44 47 40 49 58 67 72 69 67 68 73 62 61 55 51 54 56 61 65 62 66 72 69 68 65 61 61 69 63 61 62 56
10 13 13 14 18 21 23 27 35 41 47 52 58 63 62 65 65 70 73 70 68 56 54 56 69 57 51 50 57 63 67 62 68 68 62 65 62 56 61 62 63 67 59
3 13 15 19 26 31 37 44 49 53 58 62 67 71 73 70 72 77 82 79 80 78 70 59 59 69 62 55 59 65 68 52 69 57 52 59 56 60 66 67 64 64 60
12 11 21 30 40 49 56 62 64 67 70 74 76 77 73 73 73 76 80 86 86 84 82 79 75 69 63 65 56 47 56 66 54 50 53 54 55 56 53 65 64 62 59
24 31 40 46 53 60 66 71 76 79 81 79 78 78 78 76 74 67 70 71 79 85 86 81 80 84 80 58 60 50 50 64 58 62 46 55 55 58 59 52 57 57 58
41 45 50 57 62 67 71 74 77 79 74 72 69 73 74 73 70 72 71 66 68 78 79 73 67 66 64 57 60 57 64 55 51 60 60 62 60 61 53 48 50 56 54
47 53 59 65 67 69 68 70 71 69 61 61 62 64 66 69 74 75 70 65 64 72 86 70 72 63 52 60 72 66 61 53 60 56 49 55 63 46 52 56 49 52 52
53 57 60 62 62 63 60 59 62 67 67 65 60 58 62 67 71 75 77 75 72 72 84 80 65 62 67 70 62 55 62 68 67 44 44 45 28 28 40 47 48 55 53
52 57 58 59 57 57 55 59 61 56 55 57 62 66 67 65 66 66 68 73 76 71 71 83 75 79 82 62 54 61 67 65 71 72 56 46 43 42 42 38 43 49 53
52 52 53 55 53 52 51 53 53 55 56 57 60 63 72 75 74 72 74 76 81 80 84 82 77 76 68 64 83 73 67 61 55 56 59 58 60 63 49 43 43 49 48
49 55 53 49 46 46 48 51 55 62 71 75 76 80 86 86 93 83 83 77 74 78 76 74 81 70 62 70 58 56 61 54 56 59 46 50 49 50 59 47 46 51 49
58 49 43 42 44 50 50 51 60 67 75 85 89 84 87 86 81 82 86 86 88 90 88 83 83 79 74 53 58 71 54 58 53 50 46 53 57 52 50 52 51 43 40
46 45 43 44 51 59 62 59 66 76 83 90 84 91 92 88 84 82 80 84 84 83 88 81 77 76 85 79 49 52 57 44 41 45 45 49 50 51 52 54 56 49 40
45 42 45 52 57 55 57 64 71 74 77 81 96 88 76 74 78 78 78 83 83 85 85 88 93 89 86 85 67 48 45 46 51 52 41 44 44 35 38 51 54 51 37
41 43 50 54 55 57 62 68 62 68 75 85 67 70 76 84 80 80 80 76 77 76 80 77 82 81 78 74 91 72 63 61 63 54 42 39 36 42 53 53 46 41 36
39 43 51 52 52 61 69 60 63 71 64 62 65 83 85 89 84 71 67 74 77 76 69 73 82 82 88 70 63 69 69 62 67 61 43 48 49 51 50 47 47 44 42
37 42 50 49 61 69 63 53 45 54 67 72 83 89 81 77 62 46 50 63 73 75 59 62 57 63 62 69 63 69 67 61 59 56 46 54 65 68 50 61 53 48 44
Wind_Direction_500mb
201 200 194 209 236 241 231 230 231 241 247 256 264 258 254 253 255 253 256 261 267 277 283 289 284 278 272 270 270 271 269 267 268 269 266 267 270 270 272 276 280 281 284
200 214 203 204 210 202 221 235 242 237 250 256 264 265 257 253 258 269 277 269 274 274 273 280 285 286 280 271 268 267 268 269 269 268 267 267 268 268 269 274 279 281 286
202 202 213 219 212 223 229 233 230 237 246 259 265 265 267 265 277 298 291 281 282 295 289 279 279 287 287 284 275 268 265 263 266 267 266 266 269 268 264 266 276 282 288
215 208 205 207 219 221 221 218 232 239 257 278 314 289 291 298 280 282 296 287 293 271 279 284 286 282 282 286 283 280 275 268 263 262 262 264 265 266 259 259 272 282 287
221 226 214 222 221 222 222 228 248 263 271 286 306 297 306 308 289 281 277 284 276 280 284 285 289 288 285 283 282 282 281 275 267 262 262 260 261 264 258 257 256 289 287
249 263 265 265 270 258 205 334 254 271 303 311 302 294 296 294 288 288 289 289 294 286 289 282 281 284 287 286 287 283 281 281 278 267 263 261 260 262 259 254 258 276 294
360 194 256 282 217 0 37 244 247 252 267 281 285 287 287 287 288 291 293 295 299 291 286 288 284 284 278 281 284 285 282 283 279 276 270 263 259 258 256 253 255 256 268
204 218 221 186 178 204 230 252 268 284 293 308 294 293 302 301 292 294 295 286 283 284 281 281 286 285 289 279 281 290 281 279 275 275 273 271 259 255 253 251 251 251 263
152 177 190 211 220 244 255 266 283 295 295 298 301 290 297 293 297 292 290 290 290 291 290 289 287 288 284 289 287 278 285 285 282 276 270 272 270 255 253 249 248 247 252
194 209 222 243 239 238 268 283 281 276 284 288 288 280 276 284 290 297 291 287 287 289 291 292 293 296 293 293 281 286 287 273 272 274 271 270 268 265 253 249 243 246 251
251 259 266 260 268 285 295 295 294 291 285 279 279 280 281 283 283 283 289 290 288 284 289 282 289 285 290 292 289 282 278 284 271 272 273 275 270 269 259 249 244 249 254
296 342 331 303 290 296 297 294 291 289 284 283 282 281 279 278 281 281 282 282 281 282 284 276 277 284 288 288 290 291 286 295 292 288 267 280 279 270 260 251 248 250 249
200 242 257 266 287 293 296 296 294 289 286 283 280 276 273 273 277 277 280 282 284 283 279 277 279 275 275 282 288 283 280 283 287 292 276 272 273 274 266 252 249 247 247
276 283 290 291 292 292 293 295 292 292 291 287 285 277 273 270 268 273 280 285 287 283 281 278 273 270 276 274 290 288 288 282 284 283 281 280 271 268 266 261 250 243 251
292 293 295 291 291 292 291 291 292 292 290 291 287 283 281 282 282 277 274 276 281 283 279 278 278 268 272 276 285 290 284 286 291 286 281 283 280 268 257 254 254 243 242
291 292 294 295 297 296 296 296 293 294 290 284 280 279 278 279 278 275 274 274 278 284 285 280 276 278 275 270 270 282 288 289 281 275 280 281 280 268 263 255 249 244 240
291 291 291 292 293 296 294 293 289 291 292 293 291 289 287 287 284 284 283 281 280 279 285 284 284 277 278 273 275 272 278 276 278 280 294 299 278 267 265 254 251 243 238
292 295 298 297 299 296 294 290 296 293 293 291 289 291 289 287 283 284 283 282 282 280 286 290 287 279 271 268 270 268 269 277 280 271 269 276 271 268 262 263 246 235 238
298 297 297 295 295 295 296 291 288 288 286 282 279 281 282 281 283 281 281 280 285 286 279 282 290 282 278 273 265 268 271 278 274 277 261 257 267 258 255 260 234 228 232
287 287 289 290 290 289 284 281 280 280 279 281 284 288 290 291 286 284 282 280 280 280 285 284 283 285 282 279 264 263 263 264 271 268 265 255 259 258 250 250 230 226 225
297 298 293 289 285 280 280 283 283 288 290 291 293 297 298 295 290 286 282 280 279 275 275 277 282 280 272 277 261 261 255 270 265 270 262 251 257 260 252 239 223 213 196
293 293 290 287 282 277 283 292 293 293 290 287 291 301 296 292 291 292 284 280 276 272 270 269 273 274 271 263 270 251 256 259 272 272 260 258 259 256 248 237 214 196 188
285 287 286 283 285 291 293 294 299 297 295 293 297 295 297 294 292 291 285 284 277 270 268 265 268 269 265 257 257 263 252 258 262 271 264 258 252 254 227 203 188 183 183
279 287 285 286 289 293 298 307 309 298 295 296 296 298 297 295 293 289 288 287 283 277 270 262 263 267 264 267 256 254 262 268 269 266 250 241 209 205 195 187 179 182 186
278 280 285 293 293 298 310 311 307 304 298 304 299 301 300 296 292 293 284 284 284 279 275 266 265 264 255 260 252 251 254 256 264 256 248 218 192 192 183 179 174 181 194
302 298 299 295 295 304 312 316 312 311 307 305 306 309 308 306 301 292 287 280 282 283 287 279 268 258 258 245 236 238 242 250 247 253 239 200 187 176 151 164 175 181 181
Wind_Speed_850mb
37 36 35 27 29 14 14 14 17 24 26 30 30 29 30 32 38 44 48 52 53 56 61 63 58 56 53 51 52 51 51 52 50 47 43 44 41 37 34 34 36 43 41
39 29 32 39 38 31 27 27 23 24 30 30 32 33 36 43 44 41 40 46 50 60 60 63 71 68 63 61 59 59 58 57 53 52 53 50 48 44 38 36 36 41 41
34 33 26 22 21 23 29 35 38 37 43 40 36 36 39 38 42 47 43 39 51 68 58 60 69 69 68 66 64 67 67 61 58 56 58 57 55 52 44 37 36 41 41
36 41 39 35 33 34 34 34 34 31 32 31 18 40 33 34 31 49 52 65 61 59 62 66 66 66 64 67 66 64 67 71 66 65 64 62 59 59 51 43 36 44 43
41 34 29 35 45 40 42 37 25 26 34 32 29 38 40 40 42 41 40 47 50 49 57 64 73 70 69 69 70 70 72 72 74 74 71 68 65 65 59 50 38 41 46
23 51 35 28 21 30 17 5 7 17 23 28 39 44 47 50 57 60 65 66 65 66 62 68 71 72 70 66 62 61 64 64 65 75 78 73 68 65 65 56 53 35 56
4 10 39 27 11 3 8 12 17 18 19 30 40 47 49 51 54 60 59 64 67 65 69 66 67 67 72 69 63 59 58 57 61 63 70 75 70 67 65 60 57 48 48
20 14 13 7 6 15 20 21 27 30 29 25 27 39 53 60 59 55 50 51 55 55 59 61 54 45 53 40 49 57 59 62 64 61 66 66 73 69 65 60 56 51 46
11 23 17 22 23 26 25 19 17 22 30 36 34 34 46 47 59 60 66 70 71 70 73 75 79 78 72 64 61 62 60 61 63 63 66 68 59 69 67 62 58 55 46
22 16 20 19 17 14 12 13 19 25 32 44 47 40 49 58 67 72 69 67 68 73 62 61 55 51 54 56 61 65 62 66 72 69 68 65 61 61 69 63 61 62 56
10 13 13 14 18 21 23 27 35 41 47 52 58 63 62 65 65 70 73 70 68 56 54 56 69 57 51 50 57 63 67 62 68 68 62 65 62 56 61 62 63 67 59
3 13 15 19 26 31 37 44 49 53 58 62 67 71 73 70 72 77 82 79 80 78 70 59 59 69 62 55 59 65 68 52 69 57 52 59 56 60 66 67 64 64 60
12 11 21 30 40 49 56 62 64 67 70 74 76 77 73 73 73 76 80 86 86 84 82 79 75 69 63 65 56 47 56 66 54 50 53 54 55 56 53 65 64 62 59
24 31 40 46 53 60 66 71 76 79 81 79 78 78 78 76 74 67 70 71 79 85 86 81 80 84 80 58 60 50 50 64 58 62 46 55 55 58 59 52 57 57 58
41 45 50 57 62 67 71 74 77 79 74 72 69 73 74 73 70 72 71 66 68 78 79 73 67 66 64 57 60 57 64 55 51 60 60 62 60 61 53 48 50 56 54
47 53 59 65 67 69 68 70 71 69 61 61 62 64 66 69 74 75 70 65 64 72 86 70 72 63 52 60 72 66 61 53 60 56 49 55 63 46 52 56 49 52 52
53 57 60 62 62 63 60 59 62 67 67 65 60 58 62 67 71 75 77 75 72 72 84 80 65 62 67 70 62 55 62 68 67 44 44 45 28 28 40 47 48 55 53
52 57 58 59 57 57 55 59 61 56 55 57 62 66 67 65 66 66 68 73 76 71 71 83 75 79 82 62 54 61 67 65 71 72 56 46 43 42 42 38 43 49 53
52 52 53 55 53 52 51 53 53 55 56 57 60 63 72 75 74 72 74 76 81 80 84 82 77 76 68 64 83 73 67 61 55 56 59 58 60 63 49 43 43 49 48
49 55 53 49 46 46 48 51 55 62 71 75 76 80 86 86 93 83 83 77 74 78 76 74 81 70 62 70 58 56 61 54 56 59 46 50 49 50 59 47 46 51 49
58 49 43 42 44 50 50 51 60 67 75 85 89 84 87 86 81 82 86 86 88 90 88 83 83 79 74 53 58 71 54 58 53 50 46 53 57 52 50 52 51 43 40
46 45 43 44 51 59 62 59 66 76 83 90 84 91 92 88 84 82 80 84 84 83 88 81 77 76 85 79 49 52 57 44 41 45 45 49 50 51 52 54 56 49 40
45 42 45 52 57 55 57 64 71 74 77 81 96 88 76 74 78 78 78 83 83 85 85 88 93 89 86 85 67 48 45 46 51 52 41 44 44 35 38 51 54 51 37
41 43 50 54 55 57 62 68 62 68 75 85 67 70 76 84 80 80 80 76 77 76 80 77 82 81 78 74 91 72 63 61 63 54 42 39 36 42 53 53 46 41 36
39 43 51 52 52 61 69 60 63 71 64 62 65 83 85 89 84 71 67 74 77 76 69 73 82 82 88 70 63 69 69 62 67 61 43 48 49 51 50 47 47 44 42
37 42 50 49 61 69 63 53 45 54 67 72 83 89 81 77 62 46 50 63 73 75 59 62 57 63 62 69 63 69 67 61 59 56 46 54 65 68 50 61 53 48 44
Wind_Direction_850mb
201 200 194 209 236 241 231 230 231 241 247 256 264 258 254 253 255 253 256 261 267 277 283 289 284 278 272 270 270 271 269 267 268 269 266 267 270 270 272 276 280 281 284
200 214 203 204 210 202 221 235 242 237 250 256 264 265 257 253 258 269 277 269 274 274 273 280 285 286 280 271 268 267 268 269 269 268 267 267 268 268 269 274 279 281 286
202 202 213 219 212 223 229 233 230 237 246 259 265 265 267 265 277 298 291 281 282 295 289 279 279 287 287 284 275 268 265 263 266 267 266 266 269 268 264 266 276 282 288
215 208 205 207 219 221 221 218 232 239 257 278 314 289 291 298 280 282 296 287 293 271 279 284 286 282 282 286 283 280 275 268 263 262 262 264 265 266 259 259 272 282 287
221 226 214 222 221 222 222 228 248 263 271 286 306 297 306 308 289 281 277 284 276 280 284 285 289 288 285 283 282 282 281 275 267 262 262 260 261 264 258 257 256 289 287
249 263 265 265 270 258 205 334 254 271 303 311 302 294 296 294 288 288 289 289 294 286 289 282 281 284 287 286 287 283 281 281 278 267 263 261 260 262 259 254 258 276 294
360 194 256 282 217 0 37 244 247 252 267 281 285 287 287 287 288 291 293 295 299 291 286 288 284 284 278 281 284 285 282 283 279 276 270 263 259 258 256 253 255 256 268
204 218 221 186 178 204 230 252 268 284 293 308 294 293 302 301 292 294 295 286 283 284 281 281 286 285 289 279 281 290 281 279 275 275 273 271 259 255 253 251 251 251 263
152 177 190 211 220 244 255 266 283 295 295 298 301 290 297 293 297 292 290 290 290 291 290 289 287 288 284 289 287 278 285 285 282 276 270 272 270 255 253 249 248 247 252
194 209 222 243 239 238 268 283 281 276 284 288 288 280 276 284 290 297 291 287 287 289 291 292 293 296 293 293 281 286 287 273 272 274 271 270 268 265 253 249 243 246 251
251 259 266 260 268 285 295 295 294 291 285 279 279 280 281 283 283 283 289 290 288 284 289 282 289 285 290 292 289 282 278 284 271 272 273 275 270 269 259 249 244 249 254
296 342 331 303 290 296 297 294 291 289 284 283 282 281 279 278 281 281 282 282 281 282 284 276 277 284 288 288 290 291 286 295 292 288 267 280 279 270 260 251 248 250 249
200 242 257 266 287 293 296 296 294 289 286 283 280 276 273 273 277 277 280 282 284 283 279 277 279 275 275 282 288 283 280 283 287 292 276 272 273 274 266 252 249 247 247
276 283 290 291 292 292 293 295 292 292 291 287 285 277 273 270 268 273 280 285 287 283 281 278 273 270 276 274 290 288 288 282 284 283 281 280 271 268 266 261 250 243 251
292 293 295 291 291 292 291 291 292 292 290 291 287 283 281 282 282 277 274 276 281 283 279 278 278 268 272 276 285 290 284 286 291 286 281 283 280 268 257 254 254 243 242
291 292 294 295 297 296 296 296 293 294 290 284 280 279 278 279 278 275 274 274 278 284 285 280 276 278 275 270 270 282 288 289 281 275 280 281 280 268 263 255 249 244 240
291 291 291 292 293 296 294 293 289 291 292 293 291 289 287 287 284 284 283 281 280 279 285 284 284 277 278 273 275 272 278 276 278 280 294 299 278 267 265 254 251 243 238
292 295 298 297 299 296 294 290 296 293 293 291 289 291 289 287 283 284 283 282 282 280 286 290 287 279 271 268 270 268 269 277 280 271 269 276 271 268 262 263 246 235 238
298 297 297 295 295 295 296 291 288 288 286 282 279 281 282 281 283 281 281 280 285 286 279 282 290 282 278 273 265 268 271 278 274 277 261 257 267 258 255 260 234 228 232
287 287 289 290 290 289 284 281 280 280 279 281 284 288 290 291 286 284 282 280 280 280 285 284 283 285 282 279 264 263 263 264 271 268 265 255 259 258 250 250 230 226 225
297 298 293 289 285 280 280 283 283 288 290 291 293 297 298 295 290 286 282 280 279 275 275 277 282 280 272 277 261 261 255 270 265 270 262 251 257 260 252 239 223 213 196
293 293 290 287 282 277 283 292 293 293 290 287 291 301 296 292 291 292 284 280 276 272 270 269 273 274 271 263 270 251 256 259 272 272 260 258 259 256 248 237 214 196 188
285 287 286 283 285 291 293 294 299 297 295 293 297 295 297 294 292 291 285 284 277 270 268 265 268 269 265 257 257 263 252 258 262 271 264 258 252 254 227 203 188 183 183
279 287 285 286 289 293 298 307 309 298 295 296 296 298 297 295 293 289 288 287 283 277 270 262 263 267 264 267 256 254 262 268 269 266 250 241 209 205 195 187 179 182 186
278 280 285 293 293 298 310 311 307 304 298 304 299 301 300 296 292 293 284 284 284 279 275 266 265 264 255 260 252 251 254 256 264 256 248 218 192 192 183 179 174 181 194
302 298 299 295 295 304 312 316 312 311 307 305 306 309 308 306 301 292 287 280 282 283 287 279 268 258 258 245 236 238 242 250 247 253 239 200 187 176 151 164 175 181 181